Location: Newark
(52.3735°N, 16.9806°E)
Time: 08:41:13
(UTC+00:00)

ISS - Pass Details

Date: 03 October 2021
Orbit: 417 x 423 km, 51.6° (Epoch: 17 October)

Event Time Altitude Azimuth Distance (km) Brightness Sun altitude
Rises 18:19:24 0° 279° (W) 2,366 1.7 -18.2°
Reaches altitude 10° 18:22:12 10° 253° (WSW) 1,499 -0.2 -18.6°
Maximum altitude 18:24:05 14° 219° (SW) 1,265 -1.1 -18.9°
Enters shadow 18:25:31 12° 192° (SSW) 1,403 -1.2 -19.1°
